Location: Nairn
(57.5833°N, 3.8667°W)
Time: 03:05:00
(UTC+00:00)

Vanguard 1 Rocket - Pass Details

Date: 26 November 2020
Orbit: 655 x 4221 km, 34.3° (Epoch: 20 January)

Event Time Altitude Azimuth Distance (km) Brightness Sun altitude
Exits shadow 02:01:46 25° 155° (SSE) 5,334 11.0 -47.5°
Drops below altitude 10° 02:13:46 10° 111° (ESE) 5,459 11.5 -46.3°
Sets 02:18:11 0° 100° (E) 5,967 11.9 -45.9°
